Wind_Speed
74 74 75 77 80 83 88 93 96 94 85 76 72 72 64 65 71 68 62 61 48 39 45 46 53 63 72 79 87 96 100 98 99 104 110 111 107 107 108 97 92 90 93 89 84
76 77 77 77 80 86 89 95 100 95 86 75 74 75 67 69 72 64 57 60 46 39 42 43 49 59 65 75 84 93 97 98 101 106 109 107 106 103 106 103 96 95 96 95 87
75 75 78 79 82 87 92 97 101 101 88 76 77 71 68 70 72 65 56 55 44 40 39 43 48 52 60 68 80 89 89 97 103 107 108 105 104 104 103 108 102 98 95 94 92
76 78 77 80 83 88 93 99 104 101 89 77 77 72 67 70 69 65 59 50 40 36 38 42 47 45 57 61 76 84 91 96 102 106 106 105 104 105 103 104 105 101 96 90 90
79 76 78 81 84 89 95 102 102 103 87 80 78 75 70 72 69 64 60 47 35 32 37 42 43 45 56 63 76 81 86 93 100 105 104 106 104 102 106 104 105 103 100 94 89
76 77 78 81 84 89 96 104 102 102 92 84 80 77 74 71 68 66 58 45 33 30 37 42 45 44 55 63 73 79 83 91 95 100 102 106 104 102 105 110 108 105 101 98 94
72 74 76 79 83 89 95 103 102 102 93 83 80 75 75 75 70 66 53 42 32 28 32 41 44 44 54 61 73 82 83 88 97 100 106 104 105 102 105 110 110 110 105 102 100
70 72 74 80 83 91 97 103 104 103 90 81 80 74 77 75 71 68 52 38 30 26 30 39 44 47 55 60 72 81 83 89 93 97 104 104 102 105 106 107 108 106 110 105 102
70 72 73 81 84 91 100 101 103 103 86 82 77 77 75 74 73 68 48 36 29 26 29 36 44 48 53 62 73 84 82 86 92 98 104 102 102 103 105 106 107 105 106 113 106
72 72 75 80 86 91 97 97 100 98 84 82 75 79 74 73 73 66 44 32 26 25 27 31 42 53 61 64 69 77 83 85 88 93 94 99 104 106 104 107 106 107 107 109 111
75 71 79 82 87 92 95 92 100 95 82 79 73 77 72 73 70 58 41 29 24 20 21 27 41 50 54 60 67 78 86 81 85 90 96 100 101 102 103 105 108 108 108 106 108
70 74 78 81 85 87 91 93 96 90 77 75 72 74 72 73 69 54 38 27 22 15 17 29 39 45 60 65 69 75 81 82 86 91 95 100 98 101 102 102 105 108 106 106 107
73 78 79 76 82 83 86 92 91 85 77 72 72 74 74 72 67 49 35 25 16 11 19 31 38 46 57 62 65 74 78 82 84 88 92 95 98 105 103 100 103 105 106 105 106
69 69 73 77 80 79 84 87 84 81 74 67 72 75 76 70 63 46 30 21 9 6 18 28 37 48 55 61 65 70 77 82 79 83 89 95 99 103 99 97 98 101 104 106 105
69 70 69 71 77 80 78 80 77 79 71 65 68 73 73 70 62 43 29 18 7 5 15 26 37 43 53 62 63 69 74 79 78 85 90 94 98 100 97 97 96 99 101 103 105
63 65 68 70 72 73 70 69 72 77 68 65 66 70 71 66 56 38 27 18 8 3 11 23 33 38 42 53 61 67 71 76 80 81 85 91 95 95 93 91 94 95 97 99 102
57 60 60 63 65 60 59 63 69 72 62 62 63 67 66 61 49 34 25 19 11 7 8 17 25 31 42 53 59 65 72 77 79 79 81 84 88 92 89 89 89 91 93 96 98
55 57 55 57 54 53 54 58 65 69 59 59 61 62 62 59 46 31 23 18 10 9 9 15 18 19 30 43 53 63 71 76 76 74 72 79 86 87 84 83 82 83 89 91 95
51 50 48 47 44 47 49 53 61 65 56 58 58 58 59 52 43 32 23 19 10 6 12 15 22 23 27 36 49 52 58 65 70 70 74 77 80 77 74 73 73 77 83 89 91
45 43 44 39 38 40 46 50 57 60 55 57 59 57 51 46 41 34 25 20 15 6 7 13 22 28 33 40 47 52 57 62 65 68 71 73 74 73 69 68 70 75 82 87 89
40 39 39 33 32 35 41 46 50 56 51 55 57 55 50 47 42 37 29 23 18 12 4 9 17 26 32 41 46 49 53 58 63 66 67 69 69 70 71 71 73 78 81 81 83
34 32 29 27 26 31 36 42 45 51 48 53 59 56 52 46 42 39 35 27 21 17 14 2 11 19 25 30 36 43 49 53 57 60 64 66 67 70 72 73 74 73 72 73 78
29 28 24 22 22 27 31 38 41 48 49 52 56 56 55 53 47 41 36 31 26 19 15 9 4 16 19 23 35 42 47 50 53 58 62 65 67 69 69 68 70 69 68 72 75
29 26 22 17 19 22 27 33 38 44 52 48 52 56 53 54 48 44 38 36 32 27 19 12 8 3 14 20 26 34 40 43 46 51 56 59 62 66 66 67 68 69 70 73 78
24 25 19 15 16 19 25 28 33 40 47 54 52 55 55 54 49 45 43 39 38 35 29 22 15 10 7 9 19 28 35 39 46 49 51 56 57 60 61 64 66 67 72 74 77
26 24 17 14 11 16 21 25 31 36 43 50 55 56 56 57 57 53 51 44 38 35 33 27 22 16 12 10 12 16 25 34 40 44 50 52 56 55 59 64 68 71 70 71 74
28 24 17 12 9 13 17 21 27 31 38 45 51 57 60 62 61 57 54 52 46 40 36 31 27 22 16 15 14 16 19 23 33 39 46 50 54 56 60 66 66 68 71 73 76
Wind_Direction
318 319 320 321 326 327 331 333 331 329 332 334 334 332 328 328 324 322 318 312 302 287 265 252 239 227 225 220 216 216 215 213 213 212 213 215 217 214 216 212 215 222 228 228 222
315 316 319 320 324 326 328 330 329 328 331 334 333 333 329 329 324 321 318 313 300 278 256 248 240 230 225 219 216 216 216 212 212 212 213 213 216 217 215 213 215 218 224 229 225
312 317 315 318 322 324 328 329 327 329 330 334 333 332 329 329 325 323 321 312 299 273 255 242 238 232 224 219 216 217 214 213 213 215 213 213 213 218 214 214 214 217 221 227 228
309 312 314 318 319 322 326 326 327 327 330 332 334 333 330 329 327 328 324 313 298 270 251 237 235 225 223 218 216 217 212 212 213 215 215 214 211 214 218 214 215 217 219 221 229
305 307 312 317 320 320 325 324 328 327 329 332 336 330 331 331 329 330 325 313 296 268 246 235 233 220 218 214 211 213 213 211 212 214 214 214 212 211 214 216 213 217 219 219 223
303 303 310 313 317 319 323 322 327 325 328 333 335 331 331 331 329 331 325 311 294 264 243 232 230 218 214 215 209 210 213 211 213 212 215 215 212 211 213 216 215 215 218 220 220
301 303 309 313 314 318 320 323 325 325 328 333 334 331 334 333 332 328 325 311 293 263 242 231 229 219 212 211 207 209 211 210 211 211 215 214 214 212 212 215 216 214 217 219 220
297 304 307 312 312 316 318 320 321 323 327 334 334 332 334 333 334 332 323 311 292 267 243 230 224 216 211 207 207 208 208 209 210 211 214 215 215 213 213 214 218 217 215 219 220
297 302 305 310 311 315 317 319 319 322 328 334 333 334 335 335 335 333 323 312 293 271 246 231 222 216 211 207 205 208 207 209 209 211 212 213 215 214 214 214 217 220 218 218 221
294 299 302 307 308 313 315 318 319 323 327 336 333 335 337 337 337 335 325 314 298 277 245 228 218 210 207 207 206 208 209 208 211 212 214 214 215 215 213 215 216 219 220 220 221
293 295 299 302 307 310 313 316 317 323 329 334 335 337 342 341 339 337 327 318 305 276 241 215 215 216 208 204 205 205 204 209 212 211 214 214 216 219 215 215 217 219 221 222 223
289 293 296 301 307 309 313 315 317 320 331 333 340 339 344 343 340 337 330 325 308 274 225 206 206 207 204 202 203 204 208 205 210 211 213 217 216 219 217 215 219 220 221 223 224
285 291 295 299 307 308 312 314 316 320 333 335 342 342 346 344 342 340 335 331 310 260 213 203 199 201 202 203 203 203 204 207 207 210 212 216 219 219 219 216 217 221 222 223 225
284 289 294 297 301 307 311 314 315 320 333 338 343 344 348 345 344 345 342 341 324 216 208 202 194 197 199 200 200 203 202 209 209 207 211 216 219 223 220 219 219 220 223 223 225
281 286 293 296 299 308 311 312 315 320 334 340 347 346 349 348 347 345 349 1 8 206 201 193 193 192 192 196 199 201 206 209 211 209 209 217 221 224 222 220 221 221 223 224 226
276 283 288 294 297 306 310 313 316 321 336 342 352 348 348 347 348 348 356 6 27 126 192 187 196 197 196 200 200 200 204 208 210 212 212 216 222 224 226 224 222 224 224 225 227
275 280 287 293 301 306 309 314 319 323 338 346 354 350 349 350 353 354 359 10 34 104 162 181 200 197 197 197 200 202 202 208 216 212 213 218 223 225 225 225 225 225 227 227 228
269 276 285 292 301 304 310 317 322 327 340 350 358 356 355 355 356 360 6 18 44 102 148 169 176 184 199 199 201 205 207 210 214 217 218 220 226 227 228 228 227 227 228 229 230
265 274 283 292 299 302 310 318 326 329 341 352 360 360 357 357 360 5 14 29 37 104 143 170 171 174 177 194 205 208 213 215 218 218 220 223 228 231 230 231 232 232 230 230 231
262 270 282 291 295 301 311 321 327 331 344 353 3 4 2 4 10 15 19 30 36 47 152 178 183 185 187 198 203 206 209 212 218 222 223 227 230 235 233 233 233 234 232 231 233
259 267 279 284 290 304 316 324 331 335 349 356 4 6 9 11 20 25 26 31 38 38 61 174 196 200 202 203 205 209 213 216 216 219 225 227 230 233 236 233 234 234 235 233 234
253 268 270 274 290 305 320 327 334 338 353 358 5 9 14 18 19 30 29 33 36 39 39 359 214 205 212 213 214 214 215 218 222 222 224 227 231 233 234 236 235 235 238 239 239
250 258 259 269 291 310 323 329 339 341 355 359 6 12 17 20 20 26 31 31 31 34 38 36 354 240 237 223 216 214 216 221 225 224 225 227 229 233 236 239 241 241 240 242 242
241 246 247 267 290 312 324 330 342 347 349 4 5 13 19 25 25 27 30 35 34 29 26 20 21 341 244 241 237 230 229 227 228 230 232 234 234 236 238 239 240 241 242 243 244
228 232 236 262 291 313 323 338 345 351 356 358 5 8 20 31 30 33 29 32 33 31 26 17 11 357 332 274 250 238 234 234 233 234 233 235 237 239 241 243 244 242 242 243 244
211 220 224 254 290 314 324 346 351 357 0 1 2 4 12 20 30 34 35 33 31 31 29 22 13 356 339 313 286 262 250 240 236 237 238 239 240 240 241 241 242 243 244 244 246
205 210 219 238 285 313 327 353 354 0 2 7 7 7 12 13 19 27 36 37 34 32 29 29 22 7 342 319 293 278 270 263 251 244 242 243 244 241 240 242 245 246 246 246 247
Height
10746 10738 10730 10719 10710 10699 10688 10678 10667 10654 10645 10634 10624 10612 10602 10591 10579 10567 10552 10539 10532 10528 10522 10527 10528 10531 10538 10555 10569 10579 10593 10619 10644 10655 10659 10675 10697 10720 10737 10757 10769 10774 10781 10789 10805
10739 10731 10721 10711 10701 10690 10679 10668 10655 10643 10634 10623 10612 10598 10587 10576 10563 10551 10537 10523 10518 10511 10504 10511 10516 10518 10529 10543 10555 10561 10582 10611 10633 10638 10644 10670 10688 10704 10727 10744 10753 10763 10767 10773 10793
10731 10722 10713 10703 10692 10681 10670 10657 10642 10631 10621 10611 10599 10586 10575 10562 10548 10537 10522 10507 10502 10494 10492 10495 10500 10510 10519 10529 10545 10554 10581 10603 10615 10623 10635 10657 10676 10687 10710 10725 10740 10752 10760 10768 10780
10722 10714 10704 10695 10684 10671 10661 10646 10632 10620 10610 10599 10586 10573 10564 10549 10536 10520 10507 10493 10485 10481 10481 10481 10487 10501 10509 10521 10535 10547 10567 10583 10597 10612 10628 10645 10661 10678 10692 10715 10731 10742 10751 10761 10770
10712 10705 10695 10685 10675 10662 10652 10635 10625 10609 10598 10587 10572 10561 10551 10536 10518 10502 10490 10479 10472 10468 10470 10471 10477 10488 10496 10508 10518 10538 10552 10569 10580 10597 10616 10629 10649 10668 10683 10703 10714 10726 10738 10753 10763
10701 10694 10687 10677 10667 10654 10642 10624 10616 10598 10588 10573 10562 10547 10535 10523 10504 10486 10472 10465 10458 10457 10457 10459 10465 10477 10484 10494 10510 10529 10541 10557 10571 10587 10604 10618 10638 10656 10675 10684 10697 10715 10727 10740 10752
10692 10686 10678 10668 10658 10646 10632 10616 10606 10589 10577 10565 10552 10536 10522 10505 10490 10472 10459 10450 10445 10443 10446 10449 10456 10467 10475 10486 10501 10508 10525 10543 10556 10575 10585 10606 10624 10645 10655 10668 10679 10696 10710 10723 10736
10684 10677 10669 10659 10649 10638 10623 10610 10597 10579 10568 10556 10541 10528 10509 10491 10476 10459 10444 10436 10432 10432 10434 10438 10445 10455 10464 10478 10491 10498 10511 10529 10544 10561 10575 10591 10615 10625 10640 10656 10666 10683 10698 10708 10723
10674 10668 10660 10651 10641 10630 10615 10603 10587 10571 10560 10548 10533 10517 10500 10478 10460 10445 10432 10424 10420 10421 10423 10426 10434 10442 10454 10465 10475 10484 10503 10518 10533 10545 10558 10581 10599 10612 10627 10643 10656 10669 10683 10694 10708
10663 10659 10651 10643 10633 10623 10609 10597 10579 10565 10553 10539 10525 10508 10488 10467 10449 10432 10421 10414 10410 10410 10412 10417 10424 10432 10442 10455 10471 10487 10494 10509 10526 10539 10555 10572 10581 10594 10616 10629 10645 10655 10667 10680 10694
10654 10650 10643 10635 10626 10615 10602 10591 10574 10559 10546 10535 10517 10496 10478 10459 10439 10426 10414 10405 10401 10402 10403 10409 10416 10426 10439 10452 10464 10475 10483 10506 10519 10534 10544 10555 10569 10584 10604 10617 10627 10639 10652 10669 10679
10645 10640 10634 10626 10618 10606 10595 10585 10567 10557 10544 10529 10511 10488 10469 10452 10432 10418 10406 10399 10393 10394 10396 10400 10407 10418 10431 10440 10453 10468 10480 10491 10506 10522 10535 10543 10560 10571 10585 10606 10614 10625 10640 10653 10662
10633 10630 10625 10619 10610 10599 10588 10579 10561 10550 10539 10522 10504 10480 10462 10445 10425 10413 10401 10393 10389 10388 10390 10394 10401 10412 10424 10437 10450 10462 10476 10487 10498 10514 10527 10538 10547 10553 10571 10589 10601 10615 10628 10639 10649
10622 10620 10615 10611 10603 10592 10582 10572 10555 10544 10535 10518 10501 10475 10456 10438 10421 10409 10401 10390 10386 10384 10386 10393 10400 10409 10421 10436 10448 10463 10472 10480 10493 10509 10519 10528 10534 10540 10559 10576 10593 10603 10614 10625 10637
10612 10611 10608 10602 10595 10586 10577 10564 10551 10539 10531 10516 10497 10471 10455 10433 10415 10404 10397 10391 10386 10383 10386 10393 10398 10409 10420 10428 10444 10458 10471 10478 10489 10497 10507 10515 10522 10531 10550 10570 10582 10592 10601 10615 10626
10602 10602 10599 10594 10587 10580 10570 10560 10547 10536 10526 10512 10493 10471 10451 10436 10417 10405 10398 10391 10387 10385 10388 10394 10399 10407 10421 10435 10445 10454 10463 10468 10478 10492 10503 10508 10513 10529 10543 10559 10571 10579 10591 10603 10616
10593 10593 10592 10587 10582 10574 10565 10557 10543 10533 10525 10509 10491 10471 10452 10435 10419 10408 10399 10394 10391 10389 10391 10398 10402 10412 10421 10430 10440 10450 10457 10463 10467 10483 10497 10507 10511 10521 10533 10546 10558 10570 10581 10590 10601
10582 10584 10584 10580 10576 10567 10561 10553 10541 10530 10520 10506 10489 10473 10453 10436 10419 10413 10402 10397 10395 10396 10396 10400 10405 10413 10422 10432 10439 10443 10450 10457 10468 10482 10496 10500 10501 10510 10523 10532 10546 10558 10569 10577 10586
10573 10576 10576 10572 10570 10562 10558 10551 10537 10527 10519 10504 10489 10475 10456 10439 10423 10412 10406 10402 10399 10398 10400 10402 10407 10412 10420 10430 10435 10446 10456 10463 10468 10476 10482 10489 10494 10504 10516 10526 10539 10545 10551 10559 10567
10565 10569 10568 10566 10563 10559 10555 10547 10536 10523 10517 10503 10489 10475 10458 10443 10428 10417 10408 10405 10404 10403 10403 10404 10408 10412 10418 10424 10432 10438 10445 10453 10463 10470 10477 10481 10488 10494 10508 10520 10526 10529 10534 10543 10554
10556 10560 10561 10560 10557 10556 10551 10542 10534 10520 10518 10502 10490 10475 10459 10443 10431 10419 10412 10408 10406 10407 10408 10408 10410 10412 10416 10421 10427 10435 10441 10448 10453 10460 10467 10477 10485 10489 10495 10505 10508 10509 10518 10532 10543
10547 10552 10553 10554 10552 10552 10547 10537 10532 10519 10518 10500 10488 10475 10460 10446 10435 10423 10414 10410 10408 10408 10409 10411 10413 10415 10418 10421 10427 10433 10439 10444 10449 10457 10461 10466 10472 10476 10481 10489 10496 10504 10516 10525 10529
10539 10544 10546 10548 10548 10548 10544 10534 10529 10520 10517 10503 10491 10476 10460 10448 10437 10427 10421 10415 10411 10410 10410 10411 10413 10415 10416 10418 10421 10425 10431 10438 10444 10449 10453 10458 10462 10465 10473 10482 10487 10497 10506 10508 10510
10531 10536 10540 10543 10544 10543 10539 10534 10527 10521 10508 10507 10492 10482 10467 10453 10442 10433 10426 10420 10415 10414 10414 10414 10413 10413 10416 10419 10421 10425 10429 10435 10439 10443 10448 10453 10457 10460 10466 10472 10477 10481 10486 10488 10488
10523 10528 10535 10538 10539 10538 10536 10532 10526 10521 10511 10499 10490 10483 10473 10463 10455 10442 10432 10424 10419 10416 10414 10412 10413 10413 10414 10416 10418 10421 10423 10427 10429 10433 10437 10438 10445 10449 10456 10459 10462 10466 10465 10470 10472
10516 10523 10529 10534 10535 10534 10532 10529 10524 10519 10512 10499 10488 10479 10470 10466 10459 10448 10438 10430 10424 10419 10417 10414 10413 10413 10414 10416 10417 10418 10419 10420 10422 10425 10424 10428 10430 10439 10440 10441 10440 10443 10451 10453 10455
10509 10517 10524 10529 10530 10529 10529 10528 10523 10519 10511 10500 10489 10475 10463 10457 10450 10448 10443 10437 10432 10427 10422 10418 10415 10413 10412 10413 10413 10413 10414 10414 10415 10416 10414 10416 10418 10423 10422 10421 10428 10433 10433 10435 10436